TimePDT,TemperatureF,Dew PointF,Humidity,Sea Level PressureIn,VisibilityMPH,Wind Direction,Wind SpeedMPH,Gust SpeedMPH,PrecipitationIn,Events,Conditions,WindDirDegrees,DateUTC
12:15 AM,35.6,26.6,70,30.00,10.0,Calm,Calm,-,N/A,,Mostly Cloudy,0,2013-05-24 07:15:00
12:35 AM,35.6,28.4,75,30.01,10.0,NW,6.9,-,N/A,,Overcast,320,2013-05-24 07:35:00
12:55 AM,33.8,28.4,81,30.01,10.0,North,3.5,-,N/A,,Overcast,10,2013-05-24 07:55:00
1:15 AM,35.6,30.2,81,30.01,10.0,North,4.6,-,N/A,,Overcast,10,2013-05-24 08:15:00
1:35 AM,37.4,28.4,70,30.01,10.0,NNW,4.6,-,N/A,,Overcast,330,2013-05-24 08:35:00
1:55 AM,37.4,30.2,75,30.01,10.0,NNW,3.5,-,N/A,,Overcast,330,2013-05-24 08:55:00
2:15 AM,37.4,30.2,75,30.00,10.0,Calm,Calm,-,N/A,,Overcast,0,2013-05-24 09:15:00
2:35 AM,35.6,28.4,75,30.00,10.0,Calm,Calm,-,N/A,,Scattered Clouds,0,2013-05-24 09:35:00
2:55 AM,35.6,30.2,81,29.99,10.0,SE,3.5,-,N/A,,Partly Cloudy,130,2013-05-24 09:55:00
3:15 AM,32.0,28.4,87,29.99,10.0,SSW,6.9,-,N/A,,Clear,200,2013-05-24 10:15:00
3:35 AM,32.0,26.6,80,29.99,10.0,SSW,4.6,-,N/A,,Partly Cloudy,210,2013-05-24 10:35:00
3:55 AM,32.0,26.6,80,29.99,10.0,SW,4.6,-,N/A,,Partly Cloudy,230,2013-05-24 10:55:00
4:15 AM,28.4,24.8,86,29.99,10.0,Calm,Calm,-,N/A,,Clear,0,2013-05-24 11:15:00
4:35 AM,28.4,26.6,93,29.99,10.0,East,5.8,-,N/A,,Clear,100,2013-05-24 11:35:00
4:55 AM,26.6,23.0,86,29.99,10.0,South,3.5,-,N/A,,Clear,170,2013-05-24 11:55:00
5:15 AM,26.6,24.8,93,30.00,10.0,NW,6.9,-,N/A,,Clear,320,2013-05-24 12:15:00
5:35 AM,26.6,21.2,80,30.00,10.0,NE,3.5,-,N/A,,Clear,40,2013-05-24 12:35:00
5:55 AM,26.6,24.8,93,30.00,10.0,ENE,3.5,-,N/A,,Clear,60,2013-05-24 12:55:00
6:15 AM,26.6,24.8,93,30.01,10.0,ENE,4.6,-,N/A,,Clear,70,2013-05-24 13:15:00
6:35 AM,30.2,26.6,86,30.01,10.0,East,3.5,-,N/A,,Mostly Cloudy,100,2013-05-24 13:35:00
6:55 AM,33.8,28.4,81,30.02,10.0,Calm,Calm,-,N/A,,Overcast,0,2013-05-24 13:55:00
7:15 AM,37.4,30.2,75,30.02,10.0,Calm,Calm,-,N/A,,Scattered Clouds,0,2013-05-24 14:15:00
7:35 AM,41.0,30.2,65,30.01,10.0,SSE,5.8,-,N/A,,Clear,150,2013-05-24 14:35:00
7:55 AM,42.8,30.2,61,30.02,10.0,SSE,4.6,-,N/A,,Clear,150,2013-05-24 14:55:00
8:15 AM,42.8,30.2,61,30.02,10.0,SE,4.6,-,N/A,,Clear,130,2013-05-24 15:15:00
8:35 AM,44.6,30.2,57,30.02,10.0,SSW,4.6,-,N/A,,Clear,200,2013-05-24 15:35:00
8:55 AM,46.4,30.2,53,30.02,10.0,SSW,5.8,-,N/A,,Clear,210,2013-05-24 15:55:00
9:15 AM,46.4,30.2,53,30.02,10.0,South,4.6,-,N/A,,Clear,170,2013-05-24 16:15:00
9:35 AM,48.2,32.0,54,30.02,10.0,SSW,6.9,-,N/A,,Clear,200,2013-05-24 16:35:00
9:55 AM,48.2,30.2,50,30.02,10.0,SSE,8.1,-,N/A,,Scattered Clouds,150,2013-05-24 16:55:00
10:15 AM,48.2,30.2,50,30.01,10.0,South,4.6,-,N/A,,Mostly Cloudy,180,2013-05-24 17:15:00
10:35 AM,51.8,32.0,47,30.01,10.0,SSE,8.1,-,N/A,,Mostly Cloudy,150,2013-05-24 17:35:00
10:55 AM,51.8,32.0,47,30.01,10.0,South,11.5,-,N/A,,Scattered Clouds,170,2013-05-24 17:55:00
11:15 AM,51.8,33.8,50,30.01,10.0,South,10.4,-,N/A,,Scattered Clouds,180,2013-05-24 18:15:00
11:35 AM,53.6,33.8,47,30.01,10.0,SE,10.4,-,N/A,,Partly Cloudy,130,2013-05-24 18:35:00
11:55 AM,53.6,32.0,44,30.01,10.0,SE,8.1,-,N/A,,Partly Cloudy,140,2013-05-24 18:55:00
12:15 PM,55.4,32.0,41,30.00,10.0,SSE,6.9,-,N/A,,Scattered Clouds,150,2013-05-24 19:15:00
12:35 PM,57.2,33.8,41,29.99,10.0,SE,9.2,-,N/A,,Scattered Clouds,130,2013-05-24 19:35:00
12:55 PM,57.2,32.0,38,29.99,10.0,SSW,4.6,-,N/A,,Partly Cloudy,210,2013-05-24 19:55:00
1:15 PM,59.0,32.0,36,29.99,10.0,South,10.4,-,N/A,,Partly Cloudy,170,2013-05-24 20:15:00
1:35 PM,59.0,30.2,34,29.98,10.0,SW,11.5,-,N/A,,Partly Cloudy,230,2013-05-24 20:35:00
1:55 PM,60.8,30.2,31,29.98,10.0,SSW,10.4,18.4,N/A,,Clear,210,2013-05-24 20:55:00
2:15 PM,60.8,30.2,31,29.98,10.0,South,6.9,-,N/A,,Clear,170,2013-05-24 21:15:00
2:35 PM,60.8,30.2,31,29.97,10.0,West,4.6,17.3,N/A,,Clear,270,2013-05-24 21:35:00
2:55 PM,60.8,28.4,29,29.97,10.0,South,9.2,-,N/A,,Partly Cloudy,180,2013-05-24 21:55:00
3:15 PM,59.0,28.4,31,29.97,10.0,SE,4.6,-,N/A,,Clear,130,2013-05-24 22:15:00
3:35 PM,62.6,28.4,27,29.96,10.0,South,4.6,-,N/A,,Clear,170,2013-05-24 22:35:00
3:55 PM,60.8,28.4,29,29.96,10.0,South,5.8,-,N/A,,Partly Cloudy,170,2013-05-24 22:55:00
4:15 PM,60.8,26.6,27,29.95,10.0,South,8.1,-,N/A,,Scattered Clouds,180,2013-05-24 23:15:00
4:35 PM,64.4,26.6,24,29.96,10.0,WSW,11.5,18.4,N/A,,Mostly Cloudy,250,2013-05-24 23:35:00
4:55 PM,62.6,24.8,24,29.96,10.0,WSW,12.7,-,N/A,,Partly Cloudy,250,2013-05-24 23:55:00
5:15 PM,62.6,23.0,22,29.96,10.0,West,10.4,17.3,N/A,,Clear,280,2013-05-25 00:15:00
5:35 PM,60.8,24.8,25,29.95,10.0,WSW,9.2,-,N/A,,Clear,240,2013-05-25 00:35:00
5:55 PM,60.8,23.0,23,29.95,10.0,West,12.7,-,N/A,,Clear,280,2013-05-25 00:55:00
6:15 PM,59.0,23.0,25,29.95,10.0,West,9.2,-,N/A,,Partly Cloudy,280,2013-05-25 01:15:00
6:35 PM,59.0,23.0,25,29.95,10.0,West,8.1,-,N/A,,Partly Cloudy,270,2013-05-25 01:35:00
6:55 PM,57.2,24.8,29,29.95,10.0,WNW,8.1,-,N/A,,Clear,290,2013-05-25 01:55:00
7:15 PM,57.2,24.8,29,29.95,10.0,West,9.2,-,N/A,,Clear,280,2013-05-25 02:15:00
7:35 PM,55.4,26.6,33,29.95,10.0,WNW,8.1,-,N/A,,Clear,300,2013-05-25 02:35:00
7:55 PM,55.4,24.8,31,29.96,10.0,NW,9.2,-,N/A,,Mostly Cloudy,310,2013-05-25 02:55:00
8:15 PM,53.6,24.8,33,29.96,10.0,NW,5.8,-,N/A,,Overcast,320,2013-05-25 03:15:00
8:35 PM,51.8,26.6,38,29.96,10.0,NNW,4.6,-,N/A,,Overcast,330,2013-05-25 03:35:00
8:55 PM,51.8,26.6,38,29.96,10.0,WNW,5.8,-,N/A,,Mostly Cloudy,300,2013-05-25 03:55:00
9:15 PM,51.8,26.6,38,29.97,10.0,NW,6.9,-,N/A,,Overcast,310,2013-05-25 04:15:00
9:35 PM,51.8,28.4,41,29.98,10.0,WNW,6.9,-,N/A,,Overcast,290,2013-05-25 04:35:00
9:55 PM,51.8,26.6,38,29.98,10.0,WNW,6.9,-,N/A,,Overcast,300,2013-05-25 04:55:00
10:15 PM,51.8,28.4,41,29.99,10.0,WNW,12.7,20.7,N/A,,Overcast,290,2013-05-25 05:15:00
10:35 PM,51.8,28.4,41,30.00,10.0,North,13.8,19.6,N/A,,Overcast,350,2013-05-25 05:35:00
10:55 PM,50.0,30.2,47,30.01,10.0,North,12.7,-,N/A,,Overcast,350,2013-05-25 05:55:00
11:15 PM,48.2,30.2,50,30.02,10.0,NNE,12.7,-,N/A,,Overcast,20,2013-05-25 06:15:00
11:35 PM,48.2,32.0,54,30.02,10.0,NW,12.7,-,N/A,,Overcast,310,2013-05-25 06:35:00
11:55 PM,46.4,32.0,57,30.02,10.0,NW,8.1,-,N/A,,Overcast,320,2013-05-25 06:55:00